Погода в Ла-Боли-Эскублаке

Франция     47°16′51″N   2°24′14″W
темп.,
°C
ветер,
м/с
пор.,
м/с
влажн.,
%
обл.,
%
осадки,
мм/ч
давл.,
гПа
погр.,
м
23 апреля, пт
пт2323:00+14всв713781 0.0 1020238
02:00+12в916802 0.0 1021431
05:00+11в1015790 0.0 1020421
08:00+10в914760 0.0 1020346
11:00+12в912733 0.0 1021426
14:00+15в811655 0.0 1020145
17:00+16в710640 0.0 101975
20:00+16в7106778 0.0 101987
24 апреля, сб
сб2423:00+14в9157174 0.0 1019250
02:00+12в91674100 0.0 1019312
05:00+11в8127686 0.0 1018258
08:00+11в8117797 0.0 1018220
11:00+13в79735 0.0 1019219
14:00+16в556710 0.0 101839
17:00+17в5566100 0.0 101732
20:00+17всв6872100 0.0 101850
25 апреля, вс
вс2523:00+15всв81373100 0.0 1019203
02:00+14всв91572100 0.0 1018292
05:00+11всв10157640 0.0 1018381
08:00+10всв10157621 0.0 1018398
11:00+13всв10137197 0.0 1017468
14:00+16всв91264100 0.0 1017191
17:00+17всв91262100 0.0 1015132
20:00+15всв101465100 0.0 1014239
26 апреля, пн
пн2623:00+14всв91466100 0.0 1015401
02:00+12всв101467100 0.0 1015520
05:00+11св111666100 0.0 1012427
08:00+10св10166680 0.0 1012453
11:00+12всв10136278 0.0 1012571
14:00+15всв8116012 0.0 1010185
17:00+16св810595 0.0 1008124
20:00+15св69655 0.0 1008103
27 апреля, вт
вт2723:00+11ссв912750 0.0 1009348
02:00+9ссв912799 0.0 1009331
05:00+8ссв81085100 0.0 1008321
08:00+8ссв811880 0.0 1008402
11:00+11с78720 0.0 1008723
14:00+12сз776070 0.0 10071051
17:00+11ссз676998 0.7 1007714
20:00+12с1012715 1.8 10081098